Home   Weather   Bat Yam   Past weeks

Flag for Israel Past Weather in Bat Yam, Israel — Yesterday and Last 2 Weeks

Now
82 °F

Sunny.


Feels Like: 85 °F
Forecast: 78 / 84 °F
Wind: 14 mph from Northwest

Location: Dov Airport

Current Time: Sep 29, 2016 at 1:20:52 PM

Latest Report: Sep 29, 2016 at 12:50 PM


Visibility: 10 mi

Pressure: 30.01 "Hg

Humidity: 58%

Dew Point: 66 °F

Location of Bat YamLocation

Past Weather in Bat Yam — Graph

°F

Bat Yam Temperature Yesterday

Maximum temperature yesterday: 82 °F (at 11:50 AM)
Minimum temperature yesterday: 73 °F (at 4:50 AM)
Average temperature yesterday: 78 °F

High & Low Weather Summary for the Past Weeks

 TemperatureHumidityPressure
High88 °F (Sep 15, 1:50 PM)89% (Sep 21, 5:00 AM)30.07 "Hg (Sep 21, 5:00 AM)
Low72 °F (Sep 25, 5:50 AM)22% (Sep 25, 9:50 AM)29.74 "Hg (Sep 25, 2:50 PM)
Average81 °F62%29.90 "Hg
* Reported Sep 14 11:50 AM — Sep 29 11:50 AM, Bat Yam, Weather by CustomWeather, © 2016

Note: Actual official high and low records may vary slightly from our data, if they occured in-between our weather recording intervals... More about our weather records

Advertising

Bat Yam Weather History for the Previous 24 Hours

Scroll right to see more
 ConditionsComfort  
Time TempWeatherWind HumidityBarometerVisibility
11:50 AM
Thu, Sep 29
82 °FSunny.12 mph58%30.04 "Hg10 mi
10:50 AM79 °FSunny.12 mph65%30.07 "Hg10 mi
9:50 AM81 °FPassing clouds.9 mph62%30.07 "HgN/A
8:50 AM79 °FPassing clouds.5 mph61%30.07 "HgN/A
7:50 AM73 °FPassing clouds.6 mph74%30.07 "HgN/A
6:50 AM72 °FScattered clouds.5 mph78%30.07 "HgN/A
5:50 AM72 °FPassing clouds.3 mph78%30.07 "HgN/A
4:50 AM72 °FPassing clouds.5 mph78%30.07 "HgN/A
3:50 AM73 °FPassing clouds.5 mph74%30.04 "HgN/A
10:50 PM
Wed, Sep 28
77 °FPassing clouds.3 mph65%30.07 "HgN/A
9:50 PM77 °FPassing clouds.6 mph65%30.07 "HgN/A
8:50 PM77 °FPassing clouds.7 mph65%30.07 "HgN/A
7:50 PM77 °FPassing clouds.8 mph65%30.04 "HgN/A
6:50 PM79 °FPassing clouds.10 mph61%30.04 "HgN/A
5:50 PM79 °FScattered clouds.12 mph61%30.04 "HgN/A
4:50 PM81 °FPassing clouds.12 mph58%30.04 "HgN/A
3:50 PM81 °FScattered clouds.13 mph58%30.04 "HgN/A
2:50 PM81 °FScattered clouds.14 mph62%30.04 "HgN/A
1:50 PM82 °FScattered clouds.14 mph58%30.04 "HgN/A
Weather by CustomWeather, © 2016

See weather overviewHow to use our weather pages